| time (UTC) | temp F | wind direction | speed MPH | gust MPH | rain 1hr in | rain 24hr in | rain mn in | humidity % | barometer mb |
| 20260508003638 | 63 | 138 | 4.0 | 2.0 | 0.06 | 0.00 | 0.00 | 83 | 1013.0 |
| 20260508000637 | 62 | 139 | 4.0 | 2.0 | 0.06 | 0.00 | 0.00 | 81 | 1012.0 |
| 20260507233636 | 68 | 142 | 3.0 | 1.0 | 0.08 | 0.00 | 0.00 | 81 | 1011.0 |
| 20260507230635 | 68 | 166 | 2.0 | 1.0 | 0.12 | 0.00 | 0.00 | 75 | 1010.0 |
| 20260507223634 | 68 | 166 | 2.0 | 1.0 | 0.08 | 0.00 | 0.00 | 81 | 1010.0 |
| 20260507220633 | 64 | 182 | 0.0 | 2.0 | 0.00 | 0.00 | 0.00 | 78 | 1010.0 |
| 20260507213632 | 70 | 182 | 0.0 | 2.0 | 0.00 | 0.00 | 0.00 | 78 | 1009.0 |
| 20260507210631 | 70 | 293 | 1.0 | 2.0 | 0.00 | 0.00 | 0.00 | 70 | 1009.0 |
| 20260507203630 | 70 | 293 | 1.0 | 2.0 | 0.00 | 0.00 | 0.00 | 71 | 1009.0 |
| 20260507200629 | 71 | 279 | 1.0 | 2.0 | 0.00 | 0.00 | 0.00 | 68 | 1009.0 |
| 20260507193628 | 71 | 279 | 1.0 | 2.0 | 0.00 | 0.00 | 0.00 | 66 | 1009.0 |
| 20260507190627 | 71 | 281 | 2.0 | 2.0 | 0.00 | 0.00 | 0.00 | 68 | 1010.0 |
| 20260507183626 | 71 | 281 | 2.0 | 2.0 | 0.00 | 0.00 | 0.00 | 66 | 1010.0 |
| 20260507180625 | 71 | 293 | 3.0 | 2.0 | 0.00 | 0.00 | 0.00 | 67 | 1011.0 |
| 20260507173624 | 71 | 305 | 3.0 | 2.0 | 0.00 | 0.00 | 0.00 | 67 | 1011.0 |
| 20260507170623 | 75 | 304 | 4.0 | 3.0 | 0.00 | 0.00 | 0.00 | 74 | 1013.0 |
| 20260507163622 | 68 | 304 | 4.0 | 3.0 | 0.00 | 0.00 | 0.00 | 72 | 1013.0 |
| 20260507160621 | 68 | 308 | 5.0 | 3.0 | 0.00 | 0.00 | 0.00 | 78 | 1015.0 |
| 20260507153620 | 67 | 308 | 5.0 | 3.0 | 0.00 | 0.00 | 0.00 | 73 | 1014.0 |
| 20260507150619 | 71 | 308 | 4.0 | 3.0 | 0.00 | 0.00 | 0.00 | 78 | 1015.0 |
| 20260507143617 | 64 | 308 | 4.0 | 3.0 | 0.00 | 0.00 | 0.00 | 78 | 1015.0 |
| 20260507140616 | 70 | 309 | 2.0 | 1.0 | 0.00 | 0.00 | 0.00 | 78 | 1016.0 |
| 20260507133615 | 60 | 309 | 2.0 | 1.0 | 0.00 | 0.00 | 0.00 | 79 | 1016.0 |
| 20260507130614 | 66 | 329 | 1.0 | 1.0 | 0.00 | 0.00 | 0.00 | 79 | 1016.0 |
| 20260507123614 | 55 | 329 | 1.0 | 1.0 | 0.00 | 0.00 | 0.00 | 80 | 1016.0 |
| 20260507120612 | 55 | 141 | 1.0 | 2.0 | 0.00 | 0.00 | 0.00 | 80 | 1015.0 |
| 20260507113611 | 55 | 117 | 2.0 | 2.0 | 0.00 | 0.00 | 0.00 | 80 | 1015.0 |
| 20260507110610 | 55 | 129 | 4.0 | 3.0 | 0.00 | 0.00 | 0.00 | 81 | 1015.0 |
| 20260507103609 | 55 | 129 | 4.0 | 3.0 | 0.00 | 0.00 | 0.00 | 82 | 1015.0 |
| 20260507100608 | 55 | 131 | 3.0 | 2.0 | 0.00 | 0.00 | 0.00 | 81 | 1015.0 |
| 20260507093607 | 55 | 131 | 3.0 | 2.0 | 0.00 | 0.00 | 0.00 | 82 | 1015.0 |
| 20260507090606 | 56 | 130 | 4.0 | 3.0 | 0.00 | 0.00 | 0.00 | 81 | 1015.0 |
| 20260507083605 | 56 | 130 | 4.0 | 3.0 | 0.00 | 0.00 | 0.00 | 83 | 1015.0 |
| 20260507080604 | 56 | 127 | 4.0 | 2.0 | 0.00 | 0.00 | 0.00 | 82 | 1015.0 |
| 20260507073603 | 56 | 127 | 4.0 | 2.0 | 0.00 | 0.00 | 0.00 | 84 | 1015.0 |
| 20260507070602 | 56 | 127 | 4.0 | 3.0 | 0.00 | 0.00 | 0.00 | 82 | 1015.0 |
| 20260507063600 | 56 | 127 | 4.0 | 3.0 | 0.00 | 0.00 | 0.00 | 85 | 1015.0 |
| 20260507060559 | 56 | 130 | 4.0 | 3.0 | 0.00 | 0.00 | 0.00 | 86 | 1016.0 |
| 20260507053558 | 56 | 129 | 4.0 | 3.0 | 0.00 | 0.00 | 0.00 | 86 | 1016.0 |
| 20260507050557 | 57 | 130 | 4.0 | 3.0 | 0.00 | 0.00 | 0.00 | 83 | 1016.0 |
| 20260507043556 | 57 | 130 | 4.0 | 3.0 | 0.00 | 0.00 | 0.00 | 86 | 1016.0 |
| 20260507040556 | 57 | 137 | 5.0 | 3.0 | 0.00 | 0.00 | 0.00 | 83 | 1016.0 |
| 20260507033554 | 58 | 137 | 5.0 | 3.0 | 0.00 | 0.00 | 0.00 | 86 | 1016.0 |
| 20260507030553 | 58 | 139 | 5.0 | 3.0 | 0.00 | 0.00 | 0.00 | 83 | 1016.0 |
| 20260507023552 | 59 | 139 | 5.0 | 3.0 | 0.00 | 0.00 | 0.00 | 87 | 1015.0 |
| 20260507020551 | 59 | 141 | 4.0 | 3.0 | 0.00 | 0.00 | 0.00 | 83 | 1015.0 |
| 20260507013550 | 60 | 141 | 4.0 | 3.0 | 0.00 | 0.00 | 0.00 | 86 | 1015.0 |
| 20260507010549 | 60 | 141 | 5.0 | 3.0 | 0.00 | 0.00 | 0.00 | 82 | 1014.0 |